Change the Weather History Date:

Friday, February 14, 2014

  Actual Average Record
Temperature  
Mean Temperature 34 °F 32 °F  
Max Temperature 41 °F 43 °F 66 °F (1911)
Min Temperature 27 °F 21 °F -6 °F (1916)
Degree Days  
Heating Degree Days 31 33  
Month to date heating degree days 517 478  
Since 1 July heating degree days 4020 3879  
Cooling Degree Days 0 0  
Month to date cooling degree days 0 0  
Year to date cooling degree days 0 0  
Moisture  
Dew Point 20 °F    
Average Humidity 58    
Maximum Humidity 78    
Minimum Humidity 38    
Precipitation  
Precipitation 0.01 in 0.11 in 1.03 in (1984)
Month to date precipitation 2.82 1.50  
Year to date precipitation 4.97 4.73  
Snow  
Snow 0.00 in - - ()
Month to date snowfall 21.7  
Since 1 September snowfall 60.9  
Snow Depth 14.00 in    
Sea Level Pressure  
Sea Level Pressure 29.69 in    
Wind  
Wind Speed 9 mph (WSW)    
Max Wind Speed 23 mph    
Max Gust Speed 37 mph    
Visibility 10 miles    
Events Snow    
T = Trace of Precipitation, MM = Missing Value Source: NWS Daily Summary

Daily Weather History Graph

Daily Weather History Graph

Search for Another Location

Airport or City:

Trip Planner

Search our weather history database for the weather conditions in past years. The results will help you decide how hot, cold, wet, or windy it might be!

Date:

Astronomy

Feb. 14, 2014 Rise Set
Actual Time 7:11 AM EST 5:55 PM EST
Civil Twilight 6:44 AM EST 6:23 PM EST
Nautical Twilight 6:13 AM EST 6:54 PM EST
Astronomical Twilight 5:42 AM EST 7:25 PM EST
Moon 5:57 PM EST (2/14) 6:38 AM EST (2/14)
Length of Visible Light 11h 38m
Length of Day
10h 43m
Full, 100% of the Moon is Illuminated
Feb 14
Full
Feb 14
Full
Feb 22
Last Quarter
Mar 1
New
Mar 8
First Quarter

Hourly Weather History & Observations

Time (EST) Temp. Windchill Dew Point Humidity Pressure Visibility Wind Dir Wind Speed Gust Speed Precip Events Conditions
12:51 AM 30.0 °F 18.7 °F 17.1 °F 59% 29.65 in 10.0 mi West 16.1 mph 24.2 mph N/A   Overcast
1:51 AM 28.0 °F 17.5 °F 15.1 °F 58% 29.65 in 10.0 mi WSW 12.7 mph - N/A   Clear
2:51 AM 30.9 °F 23.5 °F 15.1 °F 52% 29.64 in 10.0 mi SW 8.1 mph 17.3 mph N/A   Overcast
3:51 AM 32.0 °F 23.6 °F 16.0 °F 52% 29.62 in 10.0 mi WSW 10.4 mph 25.3 mph N/A   Overcast
4:51 AM 33.1 °F 24.4 °F 18.0 °F 54% 29.63 in 10.0 mi WSW 11.5 mph 23.0 mph N/A   Overcast
5:51 AM 32.0 °F 22.1 °F 19.0 °F 59% 29.65 in 10.0 mi West 13.8 mph 27.6 mph N/A   Overcast
6:51 AM 32.0 °F 22.1 °F 19.9 °F 61% 29.66 in 10.0 mi West 13.8 mph 25.3 mph N/A   Mostly Cloudy
7:51 AM 32.0 °F 23.0 °F 21.0 °F 64% 29.67 in 10.0 mi WSW 11.5 mph 26.5 mph N/A   Partly Cloudy
8:51 AM 33.1 °F 22.2 °F 19.9 °F 59% 29.68 in 10.0 mi SW 17.3 mph 28.8 mph N/A   Clear
9:51 AM 35.1 °F 25.9 °F 21.0 °F 57% 29.72 in 10.0 mi West 13.8 mph 38.0 mph N/A   Partly Cloudy
10:51 AM 36.0 °F 27.5 °F 21.0 °F 55% 29.73 in 10.0 mi WSW 12.7 mph 23.0 mph N/A   Scattered Clouds
11:51 AM 37.9 °F 30.9 °F 19.9 °F 48% 29.72 in 10.0 mi WSW 10.4 mph - N/A   Clear
12:51 PM 41.0 °F 34.7 °F 19.0 °F 41% 29.72 in 10.0 mi West 10.4 mph - N/A   Clear
1:51 PM 41.0 °F 34.3 °F 18.0 °F 40% 29.71 in 10.0 mi West 11.5 mph - N/A   Clear
2:51 PM 41.0 °F 34.7 °F 18.0 °F 40% 29.70 in 10.0 mi West 10.4 mph - N/A   Clear
3:51 PM 39.0 °F 31.8 °F 18.0 °F 43% 29.73 in 10.0 mi West 11.5 mph 23.0 mph N/A   Mostly Cloudy
4:51 PM 39.0 °F 32.3 °F 18.0 °F 43% 29.74 in 10.0 mi WSW 10.4 mph 19.6 mph N/A   Overcast
5:51 PM 37.0 °F - 21.0 °F 52% 29.73 in 10.0 mi Calm Calm - N/A   Mostly Cloudy
6:51 PM 30.0 °F - 23.0 °F 75% 29.74 in 10.0 mi Calm Calm - N/A   Clear
7:51 PM 30.9 °F - 24.1 °F 76% 29.71 in 10.0 mi Calm Calm - N/A   Overcast
8:51 PM 28.9 °F - 23.0 °F 78% 29.70 in 10.0 mi Calm Calm - N/A   Partly Cloudy
9:51 PM 30.0 °F - 25.0 °F 82% 29.71 in 10.0 mi Calm Calm - N/A   Overcast
10:51 PM 30.9 °F 27.5 °F 25.0 °F 79% 29.73 in 10.0 mi SSE 3.5 mph - N/A   Overcast
11:07 PM 32.0 °F - 25.0 °F 75% 29.66 in 9.0 mi Calm Calm - 0.00 in Snow Light Snow
11:51 PM 30.0 °F 26.5 °F 26.1 °F 85% 29.69 in 5.0 mi West 3.5 mph - 0.01 in Snow Light Snow